Regional Weather Roundup
Issued by NWS Glasgow, MT

Home | Current Version | Previous Version | Text Only | Print | Product List | Glossary On
Versions: 1 2 3 4 5 6 7 8 9 10 11 12 13 14 15 16 17 18 19 20 21 22 23 24 25 26 27 28 29 30 31 32 33 34 35 36 37 38 39 40 41 42 43 44 45 46 47 48 49 50
000
ASUS45 KGGW 132215
RWRGGW
HOURLY REGIONAL WEATHER ROUNDUP FOR NORTHEAST MONTANA
NATIONAL WEATHER SERVICE GLASGOW MONTANA
300 PM MST SAT FEB 13 2016

NOTE: "FAIR" INDICATES FEW OR NO CLOUDS BELOW 12,000 FEET WITH NO
SIGNIFICANT WEATHER AND/OR OBSTRUCTIONS TO VISISBILITY.

NORTHEAST MONTANA


CITY           SKY/WX    TMP DP  RH WIND       PRES   REMARKS
GLASGOW        CLOUDY    32  29  88 SW5       29.78S
PLENTYWOOD       N/A     24  22  91 S12         N/A
WOLF POINT     CLOUDY    31  27  85 SW6       29.79
JORDAN           N/A     44  34  67 W15       29.81R
WINNETT          N/A     46  30  53 CALM        N/A
SIDNEY         CLOUDY    30  27  86 S7        29.79S
GLENDIVE       CLOUDY    36  34  93 S12       29.82R
MALTA            N/A     43  33  68 W12G20      N/A
SCOBEY           N/A     26  16  65 CALM      29.75R

FORT PECK REPORTS


CITY           SKY/WX    TMP DP  RH WIND       PRES   REMARKS
FORT PECK        N/A     33  32  96 S3          N/A
THE PINES        N/A     39  34  82 W3G13       N/A

SOUTHEAST MONTANA


CITY           SKY/WX    TMP DP  RH WIND       PRES   REMARKS
BILLINGS       PTSUNNY   50  16  25 W35G45    29.92F
MILES CITY     CLOUDY    41  40  96 W12       29.84F
BAKER          LGT SNOW  35  31  85 W8        29.83R FOG
LIVINGSTON     PTSUNNY   43  23  45 W18       30.05R

CENTRAL MONTANA


CITY           SKY/WX    TMP DP  RH WIND       PRES   REMARKS
HAVRE          CLOUDY    44  30  57 W18       29.89R
LEWISTOWN      CLOUDY    44  28  53 NW24G38   29.94R
GREAT FALLS    MOSUNNY   49  19  30 W29G35    29.96R
CUT BANK       SUNNY     47  22  37 W26G37    29.93R
HELENA         MOSUNNY   46  21  37 W22G31    30.06S
BUTTE          CLOUDY    37  18  46 NW17G30   30.11R
BOZEMAN        MOSUNNY   39  26  59 W7        30.08R

WESTERN MONTANA


CITY           SKY/WX    TMP DP  RH WIND       PRES   REMARKS
MISSOULA       CLOUDY    44  29  55 NW5       30.18S
KALISPELL      NOT AVBL

NORTH DAKOTA


CITY           SKY/WX    TMP DP  RH WIND       PRES   REMARKS
WILLISTON      HVY SNOW  20  17  88 SE8       29.81S VSB 1/4
DICKINSON      CLOUDY    20  16  84 S17       29.80S
MINOT          LGT SNOW  18   8  65 SE13G23   29.92F
BISMARCK       LGT SNOW  18  10  71 S10       30.00R

SOUTHERN SASKATCHEWAN


CITY           SKY/WX    TMP DP  RH WIND       PRES   REMARKS
REGINA         CLOUDY    21  16  79 SE20      29.75S
ESTEVAN        LGT SNOW  18  10  73 SE15G21   29.82F DRFTSNOW
SWIFT CURRENT  LGT SNOW  23  23 100 W21       29.75R VSB 1




USA.gov is the U.S. government's official web portal to all federal, state and local government web resources and services.